FALCON 9 DEB (50853 NORAD) Tracking and Keplerian Element Data

This shows tracking and keplerian element data for the satellite.

Feedback or suggestion? Click here.




ElementValue
Catalog50853
NameFALCON 9 DEB
Epoch Orbit241
Epoch Day21.75668335
Epoch Year2022
RAAN122.9369
Inclination53.2054
Eccentricity0.0014134
Argument of Perigee250.8744
Mean Anonmoly109.0779
Mean Motion16.49951377
Decay Rate0.12875465
L11 50853U 22001BC 22021.75668335 .12875465 12547-4 12745-3 0 9999
L22 50853 53.2054 122.9369 0014134 250.8744 109.0779 16.49951377 2419

Live tracking and technical data element details for FALCON 9 DEB (NORAD 50853). FALCON 9 DEB can be tracked NOW for your location showing map with azimuth and elevation plus other details from your city location.

Track the satellite on the map from your city or location and see movement details for azimuth, elevation, latitude, longitude, range, height, and movement on the map or in text.







IsCatalogInMostPopularTable: catalog: 50853, numindb: 3
Update: records affected: 1



GetName: 50853 FALCON 9 DEB

Hit Count: updated at: Mon, 24 Jan 2022 01:12:36 GMT